Tegucigalpa, Honduras

6:52 PM CST on December 04, 2016 (GMT -0600)
Toncontin International

Weather History for MHTG - January, 2014

Change the Weather History Date:

Monday, January 20, 2014

  Actual Average Record
Temperature  
Mean Temperature 68 °F -  
Max Temperature 78 °F 77 °F 84 °F (1998)
Min Temperature 58 °F 57 °F 51 °F (2000)
Cooling Degree Days 3    
Growing Degree Days 18 (Base 50)    
Moisture  
Dew Point 56 °F    
Average Humidity 68    
Maximum Humidity 88    
Minimum Humidity 38    
Precipitation  
Precipitation 0.00 in - - ()
Sea Level Pressure  
Sea Level Pressure 30.10 in    
Wind  
Wind Speed 8 mph ()    
Max Wind Speed 16 mph    
Max Gust Speed -    
Visibility 6.1 miles    
Events      
Averages and records for this station are not official NWS values.
T = Trace of Precipitation, MM = Missing Value Source: Averaged Metar Reports

Daily Weather History Graph

Daily Weather History Graph

Search for Another Location

Airport or City:

Trip Planner

Search our weather history database for the weather conditions in past years. The results will help you decide how hot, cold, wet, or windy it might be!

Date:

Astronomy

Jan. 20, 2014 Rise Set
Actual Time 6:17 AM CST 5:42 PM CST
Civil Twilight 5:54 AM CST 6:05 PM CST
Nautical Twilight 5:28 AM CST 6:31 PM CST
Astronomical Twilight 5:02 AM CST 6:57 PM CST
Moon 9:25 PM CST (1/20) 9:03 AM CST (1/20)
Length of Visible Light 12h 10m
Length of Day
11h 25m
Waning Gibbous, 82% of the Moon is Illuminated
Jan 20
Waning Gibbous
Jan 23
Last Quarter
Jan 30
New
Feb 6
First Quarter
Feb 14
Full

Hourly Weather History & Observations

Time (CST) Temp. Dew Point Humidity Pressure Visibility Wind Dir Wind Speed Gust Speed Precip Events Conditions
12:00 AM 59 °F 53 °F 74% 29.84 in 6 mi NNW 5.8 mph - -   Haze
12:00 AM 59.0 °F 53.6 °F 82% 30.18 in 6.2 mi North 4.6 mph - N/A   Partly Cloudy
1:00 AM 59.0 °F 53.6 °F 82% 30.18 in 6.2 mi North 5.8 mph - N/A   Scattered Clouds
2:00 AM 60.8 °F 55.4 °F 82% 30.15 in 6.2 mi NNE 4.6 mph - N/A   Mostly Cloudy
3:00 AM 61 °F 55 °F 75% 30.06 in 6 mi NNE 4.6 mph - -   Haze
3:00 AM 60.8 °F 55.4 °F 82% 3.57 in 6.2 mi NNE 4.6 mph - N/A   Mostly Cloudy
4:00 AM 62.6 °F 55.4 °F 77% 30.12 in 6.2 mi NNE 8.1 mph - N/A   Mostly Cloudy
5:00 AM 62.6 °F 55.4 °F 77% 30.15 in 6.2 mi North 11.5 mph - N/A   Mostly Cloudy
6:00 AM 62 °F 55 °F 72% 30.07 in 4 mi ENE 3.5 mph - -   Haze
6:00 AM 60.8 °F 55.4 °F 82% 30.15 in 6.2 mi ENE 3.5 mph - N/A   Mostly Cloudy
7:00 AM 59.0 °F 55.4 °F 88% 30.15 in 6.2 mi NE 6.9 mph - N/A   Scattered Clouds
8:00 AM 62.6 °F 57.2 °F 82% 30.18 in 6.2 mi NE 6.9 mph - N/A   Mostly Cloudy
9:00 AM 65 °F 57 °F 68% 30.08 in 3 mi North 16.1 mph - -   Mostly Cloudy
9:00 AM 66.2 °F 57.2 °F 73% 30.21 in 3.1 mi North 16.1 mph - N/A   Mostly Cloudy
10:00 AM 68.0 °F 57.2 °F 68% 30.21 in 6.2 mi North 16.1 mph - N/A   Mostly Cloudy
11:00 AM 73.4 °F 57.2 °F 57% 30.18 in 6.2 mi North 13.8 mph - N/A   Scattered Clouds
12:00 PM 78 °F 57 °F 38% 29.95 in 9 mi North 15.0 mph - -   Haze
12:00 PM 77.0 °F 57.2 °F 50% 30.15 in 6.2 mi North 15.0 mph - N/A   Scattered Clouds
1:00 PM 77.0 °F 57.2 °F 50% 30.12 in 6.2 mi North 16.1 mph - N/A   Mostly Cloudy
2:00 PM 77.0 °F 57.2 °F 50% 30.06 in 6.2 mi North 11.5 mph - N/A   Mostly Cloudy
3:00 PM 76 °F 56 °F 39% 29.87 in 7 mi North 12.7 mph - -   Haze
3:00 PM 75.2 °F 55.4 °F 50% 30.06 in 6.2 mi North 12.7 mph - N/A   Mostly Cloudy
4:00 PM 75.2 °F 57.2 °F 53% 30.06 in 6.2 mi North 15.0 mph - N/A   Scattered Clouds
5:00 PM 71.6 °F 57.2 °F 60% 30.06 in 6.2 mi North 16.1 mph - N/A   Mostly Cloudy
6:00 PM 68 °F 56 °F 55% 29.94 in 7 mi North 11.5 mph - -   Haze
6:00 PM 68.0 °F 55.4 °F 64% 30.09 in 6.2 mi North 11.5 mph - N/A   Mostly Cloudy
7:00 PM 68.0 °F 55.4 °F 64% 30.12 in 6.2 mi NNW 11.5 mph - N/A   Mostly Cloudy
8:00 PM 66.2 °F 57.2 °F 73% 30.12 in 6.2 mi North 11.5 mph - N/A   Mostly Cloudy
9:00 PM 65 °F 58 °F 70% 30.03 in 6 mi NNE 6.9 mph - -   Haze
9:00 PM 64.4 °F 57.2 °F 77% 30.15 in 6.2 mi NNE 6.9 mph - N/A   Scattered Clouds
10:00 PM 64.4 °F 55.4 °F 73% 30.15 in 6.2 mi North 9.2 mph - N/A   Mostly Cloudy
11:00 PM 64.4 °F 57.2 °F 77% 30.15 in 6.2 mi North 5.8 mph - N/A   Mostly Cloudy